Regional Weather Roundup
Issued by NWS Sterling, VA

Home | Current Version | Previous Version | Graphics & Text | Print | Product List | Glossary On
Versions: 1 2 3 4 5 6 7 8 9 10 11 12 13 14 15 16 17 18 19 20 21 22 23 24 25 26 27 28 29 30 31 32 33 34 35 36 37 38 39 40 41 42 43 44 45 46 47 48 49 50
524
ASUS41 KLWX 170511
RWRLWX

REGIONAL WEATHER ROUNDUP
NATIONAL WEATHER SERVICE BALTIMORE MD/WASHINGTON DC
100 AM EDT THU AUG 17 2017

Note: "FAIR" indicates few or no clouds below 12,000 feet
with no significant weather and/or obstructions to visibility.
 TC=TEMPERATURE CELSIUS

 * =Non NWS site. Station does not report precipitation (e.g. rain,
    snow, etc.), thunder, or fog.

DCZ001-MDZ009-015-VAZ040>042-051-053>054-170600-
WASHINGTON METRO

CITY           SKY/WX    TMP DP  RH WIND       PRES   REMARKS
WASHINGTON NAT CLOUDY    81  75  82 CALM      30.03S
DULLES         MOCLDY    75  71  87 NW3       30.03F
ANDREWS AFB    CLOUDY    76  74  91 SE3       30.02S
FT BELVOIR     MOCLDY    76  72  88 CALM      30.02S
QUANTICO       CLOUDY    77  75  93 NW7       30.03F
COLLEGE PARK*  CLOUDY    73  71  93 CALM      30.02F
LEESBURG*      PTCLDY    77  73  88 CALM      30.04F
MANASSAS*      CLOUDY    73  70  90 CALM      30.03S
GAITHERSBURG*  PTCLDY    69  68  96 W3        30.06S

$$

MDZ006>007-011-014-170600-
BALTIMORE METRO

CITY           SKY/WX    TMP DP  RH WIND       PRES   REMARKS
BWI AIRPORT    PTCLDY    72  71  97 CALM      30.02F
MD SCIENCE CTR   N/A     79  72  79 MISG      30.02F
MARTIN STATE   CLEAR     72  72 100 CALM      30.04S FOG
ANNAPOLIS      MOCLDY    78  78 100 CALM      30.02S
FORT MEADE*    CLEAR     68  68 100 CALM      30.05F

$$

MDZ012-015-019>023-170600-
MARYLAND EASTERN SHORE

CITY           SKY/WX    TMP DP  RH WIND       PRES   REMARKS
OCEAN CITY     CLOUDY    75  73  93 SW7       30.03F
SALISBURY      CLOUDY    73  72  96 CALM      30.03S
BAY BRIDGE AP* CLOUDY    75  72  88 CALM      30.02F
CAMBRIDGE*     PTCLDY    73  70  88 CALM      30.03S
EASTON*        CLEAR     73  71  93 CALM      30.06F

$$

MDZ017>025-170600-
SOUTHERN MARYLAND

CITY           SKY/WX    TMP DP  RH WIND       PRES   REMARKS
PATUXENT RIVER PTCLDY    76  73  91 CALM      30.02F
ST INIGOES     PTCLDY    74  73  97 CALM      30.02S
LEONARDTOWN*   MOCLDY    73  70  88 CALM      30.04S

$$

MDZ003>005-170600-
NORTH CENTRAL MARYLAND

CITY           SKY/WX    TMP DP  RH WIND       PRES   REMARKS
FREDERICK*     PTCLDY    70  70 100 CALM      30.07S FOG
HAGERSTOWN APT CLEAR     74  63  68 VRB3      30.05F
WESTMINSTER*   CLEAR     72  66  83 CALM      30.06S

$$

MDZ501>502-170600-
WESTERN MARYLAND

CITY           SKY/WX    TMP DP  RH WIND       PRES   REMARKS
OAKLAND*       CLEAR     64  59  82 SE7       30.13F
CUMBERLAND*    CLEAR     70  64  83 N5        30.10S

$$

VAZ025>031-170600-
SHENANDOAH VALLEY

CITY           SKY/WX    TMP DP  RH WIND       PRES   REMARKS
WINCHESTER*    CLEAR     68  66  94 CALM      30.05S
FRONT ROYAL*   PTCLDY    72  72 100 CALM      30.05S
LURAY*         CLEAR     72  72 100 CALM      30.05F
NEW MARKET*    PTCLDY    71  69  94 CALM      30.05F
STAUNTON*      CLEAR     68  67  95 CALM      30.09F
WAYNESBORO*    CLEAR     71  69  95 W7        30.08F

$$

WVZ021-048>050-054>055-170600-
EASTERN WEST VIRGINIA PANHANDLE

CITY           SKY/WX    TMP DP  RH WIND       PRES   REMARKS
MARTINSBURG    NOT AVBL
PETERSBURG*    CLEAR     69  69  99 CALM      30.07F FOG

$$

VAZ036>039-050-170600-
CENTRAL FOOTHILLS

CITY           SKY/WX    TMP DP  RH WIND       PRES   REMARKS
CHARLOTTESVILL CLEAR     75  71  87 CALM      30.04F
CULPEPER*      CLOUDY    74  73  95 CALM      30.05S
ORANGE*        CLEAR     70  70 100 CALM      30.04S
GORDONSVILLE*  CLEAR     72  72 100 CALM      30.03F
WARRENTON*     NOT AVBL

$$

VAZ055>057-170600-
NORTH AND CENTRAL PIEDMONT

CITY           SKY/WX    TMP DP  RH WIND       PRES   REMARKS
FREDERICKSBRG* LGT RAIN  78  74  86 SW7       30.02S
STAFFORD*      MOCLDY    73  73 100 CALM      30.07S FOG

$$

NCZ024-NYZ072-PAZ021-071-VAZ022-071-170600-
OTHER REGIONAL OBSERVATIONS

CITY           SKY/WX    TMP DP  RH WIND       PRES   REMARKS
NEW YORK CITY  CLEAR     74  63  68 CALM      30.05R
PHILADELPHIA   PTCLDY    75  68  78 CALM      30.03R
PITTSBURGH     PTCLDY    68  63  84 CALM      30.05F
ROANOKE        MOCLDY    74  69  85 N6        30.09S
RICHMOND       PTCLDY    74  72  93 SE3       30.03S
RALEIGH        CLOUDY    78  73  84 CALM      30.05S

$$

ANZ530>537-170600-
MARINE OBSERVATIONS

STATION/POSITION TIME  TEMP    WIND        PRES
                       AIR SEA DIR/SP/G
                 (UTC) (F)     (DEG/KT/KT) (MB)
THOMAS PT LIGHT  0500   79 79  160/  6/  7   N/A
BALT KEY BRIDGE  0436   78     170/  3/  4 1016.6F
COVE POINT       0436   79     140/  9/ 10 1017.4F
LEWISETTA        0436   77 83  220/  5/  7 1016.5F
SOLOMONS ISLAND  0436   80 81  130/  3/  4   N/A
PINEY POINT      0436          230/  9/ 11   N/A

$$





USA.gov is the U.S. government's official web portal to all federal, state and local government web resources and services.